<?xml version="1.0" encoding="UTF-8"?>
<gpx
version="1.1"
creator="Kashmir3D 9.350 - http://www.kashmir3d.com"
xmlns:xsi="http://www.w3.org/2001/XMLSchema-instance"
xmlns="http://www.topografix.com/GPX/1/1"
xmlns:kashmir3d="http://www.kashmir3d.com/namespace/kashmir3d"
xsi:schemaLocation="http://www.topografix.com/GPX/1/1 http://www.topografix.com/GPX/1/1/gpx.xsd
	http://www.kashmir3d.com/namespace/kashmir3d http://www.kashmir3d.com/namespace/kashmir3d.xsd">
<trk>
 <name>TOKAMAYAMA.KML(外鎌山)</name>
 <number>1</number>
 <extensions>
 <kashmir3d:line_color>0000ff</kashmir3d:line_color>
 <kashmir3d:line_size>3</kashmir3d:line_size>
 <kashmir3d:line_style>1</kashmir3d:line_style>
 <kashmir3d:icon>901001</kashmir3d:icon>
 </extensions>
<trkseg>
<trkpt lat="34.516015" lon="135.869226">
 <ele>93.8</ele>
 <time>2020-03-24T13:48:35Z</time>
</trkpt>
<trkpt lat="34.515895" lon="135.869408">
 <ele>100.2</ele>
 <time>2020-03-24T13:48:35Z</time>
</trkpt>
<trkpt lat="34.515792" lon="135.869483">
 <ele>100.3</ele>
 <time>2020-03-24T13:48:36Z</time>
</trkpt>
<trkpt lat="34.515774" lon="135.869634">
 <ele>101.9</ele>
 <time>2020-03-24T13:48:36Z</time>
</trkpt>
<trkpt lat="34.515774" lon="135.869762">
 <ele>103.6</ele>
 <time>2020-03-24T13:48:36Z</time>
</trkpt>
<trkpt lat="34.515774" lon="135.869934">
 <ele>105.5</ele>
 <time>2020-03-24T13:48:36Z</time>
</trkpt>
<trkpt lat="34.515697" lon="135.870181">
 <ele>108.3</ele>
 <time>2020-03-24T13:48:36Z</time>
</trkpt>
<trkpt lat="34.515603" lon="135.870352">
 <ele>111.4</ele>
 <time>2020-03-24T13:48:36Z</time>
</trkpt>
<trkpt lat="34.515440" lon="135.870556">
 <ele>112.7</ele>
 <time>2020-03-24T13:48:36Z</time>
</trkpt>
<trkpt lat="34.515345" lon="135.870631">
 <ele>112.9</ele>
 <time>2020-03-24T13:48:36Z</time>
</trkpt>
<trkpt lat="34.515182" lon="135.870685">
 <ele>112.6</ele>
 <time>2020-03-24T13:48:36Z</time>
</trkpt>
<trkpt lat="34.515156" lon="135.870706">
 <ele>112.6</ele>
 <time>2020-03-24T13:48:37Z</time>
</trkpt>
<trkpt lat="34.515217" lon="135.870857">
 <ele>115</ele>
 <time>2020-03-24T13:48:37Z</time>
</trkpt>
<trkpt lat="34.515388" lon="135.871125">
 <ele>117.5</ele>
 <time>2020-03-24T13:48:37Z</time>
</trkpt>
<trkpt lat="34.515646" lon="135.871500">
 <ele>120.4</ele>
 <time>2020-03-24T13:48:37Z</time>
</trkpt>
<trkpt lat="34.515749" lon="135.871683">
 <ele>122.3</ele>
 <time>2020-03-24T13:48:37Z</time>
</trkpt>
<trkpt lat="34.515877" lon="135.871844">
 <ele>123</ele>
 <time>2020-03-24T13:48:37Z</time>
</trkpt>
<trkpt lat="34.515963" lon="135.871962">
 <ele>124.1</ele>
 <time>2020-03-24T13:48:37Z</time>
</trkpt>
<trkpt lat="34.515920" lon="135.872090">
 <ele>125.7</ele>
 <time>2020-03-24T13:48:37Z</time>
</trkpt>
<trkpt lat="34.515826" lon="135.872230">
 <ele>126</ele>
 <time>2020-03-24T13:48:37Z</time>
</trkpt>
<trkpt lat="34.515800" lon="135.872487">
 <ele>128.8</ele>
 <time>2020-03-24T13:48:37Z</time>
</trkpt>
<trkpt lat="34.515774" lon="135.872777">
 <ele>130.2</ele>
 <time>2020-03-24T13:48:38Z</time>
</trkpt>
<trkpt lat="34.515749" lon="135.873185">
 <ele>132.2</ele>
 <time>2020-03-24T13:48:38Z</time>
</trkpt>
<trkpt lat="34.515723" lon="135.873464">
 <ele>134.4</ele>
 <time>2020-03-24T13:48:38Z</time>
</trkpt>
<trkpt lat="34.515706" lon="135.873775">
 <ele>136</ele>
 <time>2020-03-24T13:48:38Z</time>
</trkpt>
<trkpt lat="34.515680" lon="135.874032">
 <ele>137.6</ele>
 <time>2020-03-24T13:48:38Z</time>
</trkpt>
<trkpt lat="34.515654" lon="135.874343">
 <ele>139.4</ele>
 <time>2020-03-24T13:48:38Z</time>
</trkpt>
<trkpt lat="34.515620" lon="135.874547">
 <ele>141.3</ele>
 <time>2020-03-24T13:48:38Z</time>
</trkpt>
<trkpt lat="34.515577" lon="135.874708">
 <ele>143</ele>
 <time>2020-03-24T13:48:38Z</time>
</trkpt>
<trkpt lat="34.515491" lon="135.874869">
 <ele>145.1</ele>
 <time>2020-03-24T13:48:38Z</time>
</trkpt>
<trkpt lat="34.515337" lon="135.875030">
 <ele>141.5</ele>
 <time>2020-03-24T13:48:38Z</time>
</trkpt>
<trkpt lat="34.515251" lon="135.875137">
 <ele>143.9</ele>
 <time>2020-03-24T13:48:39Z</time>
</trkpt>
<trkpt lat="34.515062" lon="135.875320">
 <ele>144.5</ele>
 <time>2020-03-24T13:48:39Z</time>
</trkpt>
<trkpt lat="34.515036" lon="135.875363">
 <ele>144.3</ele>
 <time>2020-03-24T13:48:39Z</time>
</trkpt>
<trkpt lat="34.514933" lon="135.875266">
 <ele>144.4</ele>
 <time>2020-03-24T13:48:39Z</time>
</trkpt>
<trkpt lat="34.514787" lon="135.875062">
 <ele>143.8</ele>
 <time>2020-03-24T13:48:39Z</time>
</trkpt>
<trkpt lat="34.514633" lon="135.875223">
 <ele>145.4</ele>
 <time>2020-03-24T13:48:39Z</time>
</trkpt>
<trkpt lat="34.514478" lon="135.875373">
 <ele>146.8</ele>
 <time>2020-03-24T13:48:39Z</time>
</trkpt>
<trkpt lat="34.514332" lon="135.875513">
 <ele>148.6</ele>
 <time>2020-03-24T13:48:39Z</time>
</trkpt>
<trkpt lat="34.514247" lon="135.875577">
 <ele>148.8</ele>
 <time>2020-03-24T13:48:39Z</time>
</trkpt>
<trkpt lat="34.514118" lon="135.875416">
 <ele>149.3</ele>
 <time>2020-03-24T13:48:40Z</time>
</trkpt>
<trkpt lat="34.514006" lon="135.875255">
 <ele>149.2</ele>
 <time>2020-03-24T13:48:40Z</time>
</trkpt>
<trkpt lat="34.513938" lon="135.875159">
 <ele>148.6</ele>
 <time>2020-03-24T13:48:40Z</time>
</trkpt>
<trkpt lat="34.513843" lon="135.875223">
 <ele>148.9</ele>
 <time>2020-03-24T13:48:40Z</time>
</trkpt>
<trkpt lat="34.513723" lon="135.875331">
 <ele>151.2</ele>
 <time>2020-03-24T13:48:40Z</time>
</trkpt>
<trkpt lat="34.513654" lon="135.875406">
 <ele>156.1</ele>
 <time>2020-03-24T13:48:40Z</time>
</trkpt>
<trkpt lat="34.513654" lon="135.875513">
 <ele>160.6</ele>
 <time>2020-03-24T13:48:40Z</time>
</trkpt>
<trkpt lat="34.513706" lon="135.875727">
 <ele>172.7</ele>
 <time>2020-03-24T13:48:40Z</time>
</trkpt>
<trkpt lat="34.513715" lon="135.875835">
 <ele>180.1</ele>
 <time>2020-03-24T13:48:41Z</time>
</trkpt>
<trkpt lat="34.513569" lon="135.875921">
 <ele>186.5</ele>
 <time>2020-03-24T13:48:41Z</time>
</trkpt>
<trkpt lat="34.513440" lon="135.875931">
 <ele>189.6</ele>
 <time>2020-03-24T13:48:41Z</time>
</trkpt>
<trkpt lat="34.513345" lon="135.875953">
 <ele>192.4</ele>
 <time>2020-03-24T13:48:41Z</time>
</trkpt>
<trkpt lat="34.513251" lon="135.876017">
 <ele>195.6</ele>
 <time>2020-03-24T13:48:41Z</time>
</trkpt>
<trkpt lat="34.513165" lon="135.876092">
 <ele>201.7</ele>
 <time>2020-03-24T13:48:41Z</time>
</trkpt>
<trkpt lat="34.513036" lon="135.876135">
 <ele>206.3</ele>
 <time>2020-03-24T13:48:41Z</time>
</trkpt>
<trkpt lat="34.512813" lon="135.876178">
 <ele>212.9</ele>
 <time>2020-03-24T13:48:41Z</time>
</trkpt>
<trkpt lat="34.512667" lon="135.876210">
 <ele>217.7</ele>
 <time>2020-03-24T13:48:42Z</time>
</trkpt>
<trkpt lat="34.512444" lon="135.876221">
 <ele>225.6</ele>
 <time>2020-03-24T13:48:42Z</time>
</trkpt>
<trkpt lat="34.512307" lon="135.876242">
 <ele>230.3</ele>
 <time>2020-03-24T13:48:42Z</time>
</trkpt>
<trkpt lat="34.512144" lon="135.876275">
 <ele>237.8</ele>
 <time>2020-03-24T13:48:42Z</time>
</trkpt>
<trkpt lat="34.512032" lon="135.876285">
 <ele>240.2</ele>
 <time>2020-03-24T13:48:42Z</time>
</trkpt>
<trkpt lat="34.511955" lon="135.876425">
 <ele>248.4</ele>
 <time>2020-03-24T13:48:42Z</time>
</trkpt>
<trkpt lat="34.511783" lon="135.876586">
 <ele>261.5</ele>
 <time>2020-03-24T13:48:42Z</time>
</trkpt>
<trkpt lat="34.511689" lon="135.876682">
 <ele>268.8</ele>
 <time>2020-03-24T13:48:43Z</time>
</trkpt>
<trkpt lat="34.511560" lon="135.876790">
 <ele>277</ele>
 <time>2020-03-24T13:48:43Z</time>
</trkpt>
<trkpt lat="34.511483" lon="135.876918">
 <ele>283.4</ele>
 <time>2020-03-24T13:48:43Z</time>
</trkpt>
<trkpt lat="34.511336" lon="135.876986">
 <ele>291.8</ele>
 <time>2020-03-24T13:48:43Z</time>
</trkpt>
<trkpt lat="34.511483" lon="135.876918">
 <ele>283.4</ele>
 <time>2020-03-24T13:48:43Z</time>
</trkpt>
<trkpt lat="34.511560" lon="135.876790">
 <ele>277</ele>
 <time>2020-03-24T13:48:43Z</time>
</trkpt>
<trkpt lat="34.511689" lon="135.876682">
 <ele>268.8</ele>
 <time>2020-03-24T13:48:43Z</time>
</trkpt>
<trkpt lat="34.511783" lon="135.876586">
 <ele>261.5</ele>
 <time>2020-03-24T13:48:44Z</time>
</trkpt>
<trkpt lat="34.511955" lon="135.876425">
 <ele>248.4</ele>
 <time>2020-03-24T13:48:44Z</time>
</trkpt>
<trkpt lat="34.512032" lon="135.876285">
 <ele>240.2</ele>
 <time>2020-03-24T13:48:44Z</time>
</trkpt>
<trkpt lat="34.512144" lon="135.876275">
 <ele>237.8</ele>
 <time>2020-03-24T13:48:44Z</time>
</trkpt>
<trkpt lat="34.512307" lon="135.876242">
 <ele>230.3</ele>
 <time>2020-03-24T13:48:44Z</time>
</trkpt>
<trkpt lat="34.512444" lon="135.876221">
 <ele>225.6</ele>
 <time>2020-03-24T13:48:44Z</time>
</trkpt>
<trkpt lat="34.512667" lon="135.876210">
 <ele>217.7</ele>
 <time>2020-03-24T13:48:44Z</time>
</trkpt>
<trkpt lat="34.512813" lon="135.876178">
 <ele>212.9</ele>
 <time>2020-03-24T13:48:44Z</time>
</trkpt>
<trkpt lat="34.513036" lon="135.876135">
 <ele>206.3</ele>
 <time>2020-03-24T13:48:45Z</time>
</trkpt>
<trkpt lat="34.513165" lon="135.876092">
 <ele>201.7</ele>
 <time>2020-03-24T13:48:45Z</time>
</trkpt>
<trkpt lat="34.513251" lon="135.876017">
 <ele>195.6</ele>
 <time>2020-03-24T13:48:45Z</time>
</trkpt>
<trkpt lat="34.513345" lon="135.875953">
 <ele>192.4</ele>
 <time>2020-03-24T13:48:45Z</time>
</trkpt>
<trkpt lat="34.513440" lon="135.875931">
 <ele>189.6</ele>
 <time>2020-03-24T13:48:45Z</time>
</trkpt>
<trkpt lat="34.513569" lon="135.875921">
 <ele>186.5</ele>
 <time>2020-03-24T13:48:45Z</time>
</trkpt>
<trkpt lat="34.513715" lon="135.875835">
 <ele>180.1</ele>
 <time>2020-03-24T13:48:45Z</time>
</trkpt>
<trkpt lat="34.513706" lon="135.875727">
 <ele>172.7</ele>
 <time>2020-03-24T13:48:46Z</time>
</trkpt>
<trkpt lat="34.513654" lon="135.875513">
 <ele>160.6</ele>
 <time>2020-03-24T13:48:46Z</time>
</trkpt>
<trkpt lat="34.513654" lon="135.875406">
 <ele>156.1</ele>
 <time>2020-03-24T13:48:46Z</time>
</trkpt>
<trkpt lat="34.513723" lon="135.875331">
 <ele>151.2</ele>
 <time>2020-03-24T13:48:46Z</time>
</trkpt>
<trkpt lat="34.513843" lon="135.875223">
 <ele>148.9</ele>
 <time>2020-03-24T13:48:46Z</time>
</trkpt>
<trkpt lat="34.513938" lon="135.875159">
 <ele>148.6</ele>
 <time>2020-03-24T13:48:46Z</time>
</trkpt>
<trkpt lat="34.514006" lon="135.875255">
 <ele>149.2</ele>
 <time>2020-03-24T13:48:46Z</time>
</trkpt>
<trkpt lat="34.514118" lon="135.875416">
 <ele>149.3</ele>
 <time>2020-03-24T13:48:46Z</time>
</trkpt>
<trkpt lat="34.514247" lon="135.875577">
 <ele>148.8</ele>
 <time>2020-03-24T13:48:46Z</time>
</trkpt>
<trkpt lat="34.514332" lon="135.875513">
 <ele>148.6</ele>
 <time>2020-03-24T13:48:47Z</time>
</trkpt>
<trkpt lat="34.514478" lon="135.875373">
 <ele>146.8</ele>
 <time>2020-03-24T13:48:47Z</time>
</trkpt>
<trkpt lat="34.514633" lon="135.875223">
 <ele>145.4</ele>
 <time>2020-03-24T13:48:47Z</time>
</trkpt>
<trkpt lat="34.514787" lon="135.875062">
 <ele>143.8</ele>
 <time>2020-03-24T13:48:47Z</time>
</trkpt>
<trkpt lat="34.514933" lon="135.875266">
 <ele>144.4</ele>
 <time>2020-03-24T13:48:47Z</time>
</trkpt>
<trkpt lat="34.515036" lon="135.875363">
 <ele>144.3</ele>
 <time>2020-03-24T13:48:47Z</time>
</trkpt>
<trkpt lat="34.515062" lon="135.875320">
 <ele>144.5</ele>
 <time>2020-03-24T13:48:47Z</time>
</trkpt>
<trkpt lat="34.515251" lon="135.875137">
 <ele>143.9</ele>
 <time>2020-03-24T13:48:47Z</time>
</trkpt>
<trkpt lat="34.515337" lon="135.875030">
 <ele>141.5</ele>
 <time>2020-03-24T13:48:47Z</time>
</trkpt>
<trkpt lat="34.515491" lon="135.874869">
 <ele>145.1</ele>
 <time>2020-03-24T13:48:47Z</time>
</trkpt>
<trkpt lat="34.515577" lon="135.874708">
 <ele>143</ele>
 <time>2020-03-24T13:48:48Z</time>
</trkpt>
<trkpt lat="34.515620" lon="135.874547">
 <ele>141.3</ele>
 <time>2020-03-24T13:48:48Z</time>
</trkpt>
<trkpt lat="34.515654" lon="135.874343">
 <ele>139.4</ele>
 <time>2020-03-24T13:48:48Z</time>
</trkpt>
<trkpt lat="34.515680" lon="135.874032">
 <ele>137.6</ele>
 <time>2020-03-24T13:48:48Z</time>
</trkpt>
<trkpt lat="34.515706" lon="135.873775">
 <ele>136</ele>
 <time>2020-03-24T13:48:48Z</time>
</trkpt>
<trkpt lat="34.515723" lon="135.873464">
 <ele>134.4</ele>
 <time>2020-03-24T13:48:48Z</time>
</trkpt>
<trkpt lat="34.515749" lon="135.873185">
 <ele>132.2</ele>
 <time>2020-03-24T13:48:48Z</time>
</trkpt>
<trkpt lat="34.515774" lon="135.872777">
 <ele>130.2</ele>
 <time>2020-03-24T13:48:48Z</time>
</trkpt>
<trkpt lat="34.515800" lon="135.872487">
 <ele>128.8</ele>
 <time>2020-03-24T13:48:48Z</time>
</trkpt>
<trkpt lat="34.515826" lon="135.872230">
 <ele>126</ele>
 <time>2020-03-24T13:48:48Z</time>
</trkpt>
<trkpt lat="34.515920" lon="135.872090">
 <ele>125.7</ele>
 <time>2020-03-24T13:48:49Z</time>
</trkpt>
<trkpt lat="34.515963" lon="135.871962">
 <ele>124.1</ele>
 <time>2020-03-24T13:48:49Z</time>
</trkpt>
<trkpt lat="34.515877" lon="135.871844">
 <ele>123</ele>
 <time>2020-03-24T13:48:49Z</time>
</trkpt>
<trkpt lat="34.515749" lon="135.871683">
 <ele>122.3</ele>
 <time>2020-03-24T13:48:49Z</time>
</trkpt>
<trkpt lat="34.515646" lon="135.871500">
 <ele>120.4</ele>
 <time>2020-03-24T13:48:49Z</time>
</trkpt>
<trkpt lat="34.515388" lon="135.871125">
 <ele>117.5</ele>
 <time>2020-03-24T13:48:49Z</time>
</trkpt>
<trkpt lat="34.515217" lon="135.870857">
 <ele>115</ele>
 <time>2020-03-24T13:48:49Z</time>
</trkpt>
<trkpt lat="34.515156" lon="135.870706">
 <ele>112.6</ele>
 <time>2020-03-24T13:48:49Z</time>
</trkpt>
<trkpt lat="34.515182" lon="135.870685">
 <ele>112.6</ele>
 <time>2020-03-24T13:48:49Z</time>
</trkpt>
<trkpt lat="34.515345" lon="135.870631">
 <ele>112.9</ele>
 <time>2020-03-24T13:48:50Z</time>
</trkpt>
<trkpt lat="34.515440" lon="135.870556">
 <ele>112.7</ele>
 <time>2020-03-24T13:48:50Z</time>
</trkpt>
<trkpt lat="34.515603" lon="135.870352">
 <ele>111.4</ele>
 <time>2020-03-24T13:48:50Z</time>
</trkpt>
<trkpt lat="34.515697" lon="135.870181">
 <ele>108.3</ele>
 <time>2020-03-24T13:48:50Z</time>
</trkpt>
<trkpt lat="34.515774" lon="135.869934">
 <ele>105.5</ele>
 <time>2020-03-24T13:48:50Z</time>
</trkpt>
<trkpt lat="34.515774" lon="135.869762">
 <ele>103.6</ele>
 <time>2020-03-24T13:48:50Z</time>
</trkpt>
<trkpt lat="34.515774" lon="135.869634">
 <ele>101.9</ele>
 <time>2020-03-24T13:48:50Z</time>
</trkpt>
<trkpt lat="34.515792" lon="135.869483">
 <ele>100.3</ele>
 <time>2020-03-24T13:48:50Z</time>
</trkpt>
<trkpt lat="34.515895" lon="135.869408">
 <ele>100.2</ele>
 <time>2020-03-24T13:48:50Z</time>
</trkpt>
<trkpt lat="34.516015" lon="135.869226">
 <ele>93.8</ele>
 <time>2020-03-24T13:48:50Z</time>
</trkpt>
</trkseg>
</trk>
</gpx>

